Regional Weather Roundup
Issued by NWS Mobile, AL

Home | Current Version | Previous Version | Text Only | Print | Product List | Glossary On
Versions: 1 2 3 4 5 6 7 8 9 10 11 12 13 14 15 16 17 18 19 20 21 22 23 24 25 26 27 28 29 30 31 32 33 34 35 36 37 38 39 40 41 42 43 44 45 46 47 48 49 50
000
ASUS44 KMOB 271312
RWRMOB
REGIONAL WEATHER ROUNDUP
NATIONAL WEATHER SERVICE MOBILE AL
700 AM CST MON FEB 27 2017

NOTE: "FAIR" INDICATES FEW OR NO CLOUDS BELOW 12,000 FEET WITH NO
      SIGNIFICANT WEATHER AND/OR OBSTRUCTIONS TO VISIBILITY.

  * THESE STATIONS ARE PART OF THE UNIVERSITY OF SOUTH ALABAMA
    MESONET AND ARE NOT UNDER NWS OR FAA QUALITY CONTROL.

ALZ061>064-271400-
COASTAL ALABAMA

CITY           SKY/WX    TMP DP  RH WIND       PRES   REMARKS
MOBILE REG APT PTCLDY    63  57  81 SE5       30.12R
BROOKLEY FIELD CLEAR     65  59  81 S9        30.12R
USA CAMPUS*      N/A     61  55  82 SE2       30.12R
DOG RIVER*     NOT AVBL


CITY           SKY/WX    TMP DP  RH WIND       PRES   REMARKS
GULF SHORES    CLEAR     65  62  89 SE9G16    30.13R

$$

ALZ051>060-271400-
INTERIOR SOUTHWEST AND SOUTH CENTRAL ALABAMA

CITY           SKY/WX    TMP DP  RH WIND       PRES   REMARKS
GREENVILLE     CLOUDY    55  36  48 SE8       30.14S
EVERGREEN      LGT RAIN  53  45  74 SE16      30.13S
ATMORE*          N/A     54  48  82 CALM      30.14R
ANDALUSIA/OPP  CLOUDY    55  39  54 SE6       30.18S
ANDALUSIA*       N/A     54  41  62 SE12      30.15F
FLORALA APT    PTCLDY    49  38  65 SE5       30.21S
FLORALA*         N/A     48  41  76 CALM      30.97S

$$

FLZ001>006-271400-
WESTERN FLORIDA PANHANDLE

CITY           SKY/WX    TMP DP  RH WIND       PRES   REMARKS
PENSACOLA      CLEAR     58  52  80 E6        30.16R
NAS PENSACOLA  PTCLDY    61  57  87 E7        30.15R
MILTON         PTCLDY    49  44  83 E8        30.16S
WHTNG S FIELD  PTCLDY    55  46  71 SE12      30.17R


CITY           SKY/WX    TMP DP  RH WIND       PRES   REMARKS
JAY*             N/A     54  46  76 SE18      30.13F
DUKE FIELD     CLEAR     53  43  70 CALM      30.18R
CRESTVIEW      PTCLDY    47  42  83 CALM      30.21R
VALPARAISO     PTCLDY    57  49  74 E7        30.18R
DESTIN         CLOUDY    60  57  89 E6        30.18R

$$

MSZ076-079-271400-
INTERIOR SOUTHEAST MISSISSIPPI

CITY           SKY/WX    TMP DP  RH WIND       PRES   REMARKS
LEAKESVILLE*   NOT AVBL
AGRICOLA*        N/A     57  55  94 CALM      30.11R

$$

MARINE OBSERVATIONS

STATION/POSITION TIME  TEMP    WIND        PRES    WAVE
                       AIR SEA DIR/SP/G            HT/PER
                 (UTC) (F)     (DEG/KT/KT) (MB)    (FT/S)
PASCAGOULA       1248   67     150/ 16/ 20 1018.4R
PETIT BOIS ISLND 1248   68     150/ 16/ 21 1019.5R
GRAND BAY        1145   66     140/ 13     1019.0S
E DAUPHIN ISLAND 1200   67     130/ 17/ 18 1018.9F
MIDDLE BAY LIGHT 1230   66     130/ 25     1018.0F
USCG MOBILE BAY  1248   63 63  140/  3/  9 1019.9R
STATE DOCKS      1248   63 62              1019.5R
MEAHER PARK      1230   63     130/ 13     1018.6R
WEEKS BAY        1145   53                   N/A
FORT MORGAN      1248   68     140/ 27/ 29   N/A
12 S ORANGE BCH  1150   69 68  150/ 14/ 16 1019.8F   4/ 6
PENSACOLA BAY    1248   60 65  160/  1/  4 1021.2R
67 S FORT MORGAN 1230   71     160/ 17     1020.0R

$$

SELECTED LOCATIONS ACROSS THE REGION

CITY           SKY/WX    TMP DP  RH WIND       PRES   REMARKS
NEW ORLEANS    CLOUDY    69  66  90 S10G20    30.06R
GULFPORT       CLOUDY    67  63  87 SE3       30.09R
PASCAGOULA AP  CLEAR     66  60  81 SE7       30.10R
PASCAGOULA*    NOT AVBL
HATTIESBURG    PTCLDY    61  55  81 SE5       30.09S
LAUREL         MOCLDY    59  52  77 S5        30.10R
MERIDIAN       CLOUDY    53  51  93 S5        30.08S
JACKSON        TSTM      54  53  97 N10       30.13R FOG
MONTGOMERY     CLOUDY    59  30  33 SE15      30.15R
TROY           CLOUDY    54  31  41 SE12      30.19F
ASHFORD*         N/A     54  41  62 SE12      30.15F
DOTHAN         PTCLDY    51  35  54 E6        30.25R
PANAMA CITY    CLEAR     52  46  80 E7        30.19R

$$




USA.gov is the U.S. government's official web portal to all federal, state and local government web resources and services.